Weather History for Waskish, MN

Change the Weather History Date:

Sunday, January 6, 2013

  Actual Average (KBDE) Record (KBDE)
Temperature  
Mean Temperature 6 °F -  
Max Temperature 19 °F 13 °F 42 °F (2008)
Min Temperature -5 °F -7 °F -46 °F (1968)
Degree Days  
Heating Degree Days 59    
Moisture  
Dew Point 4 °F    
Average Humidity 79    
Maximum Humidity 93    
Minimum Humidity 58    
Precipitation  
Precipitation 0.00 in - - ()
Sea Level Pressure  
Sea Level Pressure 30.01 in    
Wind  
Wind Speed 4 mph (SSW)    
Max Wind Speed 13 mph    
Max Gust Speed 22 mph    
Visibility 10 miles    
Events      
Averages and records for this station are not official NWS values.
T = Trace of Precipitation, MM = Missing Value Source: NWS Daily Summary

Daily Weather History Graph

Daily Weather History Graph

Search for Another Location

Airport:

Trip Planner

Search our weather history database for the weather conditions in past years. The results will help you decide how hot, cold, wet, or windy it might be!

Date:

Astronomy

Jan. 06, 2013 Rise Set
Actual Time 8:07 AM CST 4:40 PM CST
Civil Twilight 7:31 AM CST 5:16 PM CST
Nautical Twilight 6:52 AM CST 5:56 PM CST
Astronomical Twilight 6:14 AM CST 6:33 PM CST
Moon 2:12 AM CST (1/6) 12:17 PM CST (1/6)
Length of Visible Light 9h 44m
Length of Day
8h 32m
Waning Crescent, 33% of the Moon is Illuminated
Jan 6
Waning Crescent
Jan 11
New
Jan 18
First Quarter
Jan 26
Full
Feb 3
Last Quarter

Hourly Weather History & Observations

Time (CST) Temp. Windchill Dew Point Humidity Pressure Visibility Wind Dir Wind Speed Gust Speed Precip Events Conditions
12:05 AM 8.6 °F 0.1 °F 6.8 °F 92% 30.03 in 10.0 mi West 4.6 mph - N/A   Overcast
12:25 AM 8.6 °F -1.3 °F 5.0 °F 85% 30.03 in 10.0 mi West 5.8 mph - N/A   Overcast
12:45 AM 8.6 °F 0.1 °F 5.0 °F 85% 30.03 in 10.0 mi West 4.6 mph - N/A   Mostly Cloudy
1:05 AM 8.6 °F 2.0 °F 5.0 °F 85% 30.03 in 10.0 mi West 3.5 mph - N/A   Scattered Clouds
1:25 AM 8.6 °F 0.1 °F 5.0 °F 85% 30.04 in 10.0 mi West 4.6 mph - N/A   Mostly Cloudy
1:45 AM 8.6 °F 2.0 °F 3.2 °F 79% 30.04 in 10.0 mi WSW 3.5 mph - N/A   Scattered Clouds
2:05 AM 6.8 °F -2.0 °F 3.2 °F 85% 30.05 in 10.0 mi West 4.6 mph - N/A   Clear
2:25 AM 6.8 °F -2.0 °F 1.4 °F 79% 30.06 in 10.0 mi West 4.6 mph - N/A   Clear
2:45 AM 5.0 °F -5.6 °F 1.4 °F 85% 30.06 in 10.0 mi West 5.8 mph - N/A   Clear
3:05 AM 3.2 °F -4.2 °F 1.4 °F 92% 30.06 in 10.0 mi WSW 3.5 mph - N/A   Clear
3:25 AM 3.2 °F -7.8 °F 1.4 °F 92% 30.09 in 10.0 mi West 5.8 mph - N/A   Clear
3:45 AM 3.2 °F -6.2 °F -0.4 °F 85% 30.08 in 10.0 mi West 4.6 mph - N/A   Clear
4:05 AM 1.4 °F -6.2 °F -0.4 °F 92% 30.09 in 10.0 mi WSW 3.5 mph - N/A   Clear
4:25 AM 1.4 °F -6.2 °F -0.4 °F 92% 30.09 in 10.0 mi WSW 3.5 mph - N/A   Clear
4:45 AM 1.4 °F -6.2 °F -2.2 °F 85% 30.09 in 10.0 mi WSW 3.5 mph - N/A   Clear
5:05 AM -0.4 °F - -2.2 °F 92% 30.09 in 10.0 mi Calm Calm - N/A   Clear
5:25 AM -0.4 °F - -4.0 °F 85% 30.09 in 10.0 mi Calm Calm - N/A   Clear
5:45 AM -2.2 °F - -5.8 °F 85% 30.09 in 10.0 mi Calm Calm - N/A   Clear
6:05 AM -2.2 °F - -5.8 °F 85% 30.10 in 10.0 mi Calm Calm - N/A   Clear
6:25 AM -5.8 °F - -9.4 °F 84% 30.10 in 10.0 mi Calm Calm - N/A   Clear
7:05 AM -5.8 °F - -9.4 °F 84% 30.11 in 10.0 mi Calm Calm - N/A   Clear
7:25 AM -4.0 °F -12.4 °F -7.6 °F 85% 30.12 in 10.0 mi WSW 3.5 mph - N/A   Clear
7:45 AM -5.8 °F - -9.4 °F 84% 30.12 in 10.0 mi Calm Calm - N/A   Clear
8:25 AM -5.8 °F - -9.4 °F 84% 30.12 in 10.0 mi Calm Calm - N/A   Clear
8:45 AM -4.0 °F - -7.6 °F 85% 30.12 in 10.0 mi Calm Calm - N/A   Clear
9:05 AM -0.4 °F - -4.0 °F 85% 30.13 in 10.0 mi Calm Calm - N/A   Clear
9:25 AM 3.2 °F - -0.4 °F 85% 30.13 in 10.0 mi Calm Calm - N/A   Clear
9:45 AM 6.8 °F - 3.2 °F 85% 30.13 in 10.0 mi Calm Calm - N/A   Clear
10:05 AM 8.6 °F - 3.2 °F 79% 30.14 in 10.0 mi Calm Calm - N/A   Clear
10:25 AM 8.6 °F - 1.4 °F 73% 30.14 in 10.0 mi Calm Calm - N/A   Clear
10:45 AM 8.6 °F - 1.4 °F 73% 30.13 in 10.0 mi Calm Calm - N/A   Clear
11:05 AM 10.4 °F - 3.2 °F 73% 30.12 in 10.0 mi Calm Calm - N/A   Clear
11:25 AM 10.4 °F - 3.2 °F 73% 30.12 in 10.0 mi Calm Calm - N/A   Clear
11:45 AM 12.2 °F - 3.2 °F 67% 30.11 in 10.0 mi Calm Calm - N/A   Clear
12:05 PM 14.0 °F - 5.0 °F 67% 30.09 in 10.0 mi Calm Calm - N/A   Clear
12:25 PM 14.0 °F 8.2 °F 5.0 °F 67% 30.09 in 10.0 mi West 3.5 mph - N/A   Clear
12:45 PM 14.0 °F - 5.0 °F 67% 30.07 in 10.0 mi Calm Calm - N/A   Clear
1:05 PM 15.8 °F 10.2 °F 6.8 °F 68% 30.07 in 10.0 mi West 3.5 mph - N/A   Clear
1:25 PM 14.0 °F 8.2 °F 6.8 °F 73% 30.06 in 10.0 mi West 3.5 mph - N/A   Clear
1:45 PM 15.8 °F 10.2 °F 5.0 °F 62% 30.06 in 10.0 mi West 3.5 mph - N/A   Clear
2:05 PM 12.2 °F - 5.0 °F 73% 30.06 in 10.0 mi Calm Calm - N/A   Clear
2:25 PM 14.0 °F - 6.8 °F 73% 30.06 in 10.0 mi Calm Calm - N/A   Clear
2:45 PM 14.0 °F - 5.0 °F 67% 30.04 in 10.0 mi Calm Calm - N/A   Clear
3:05 PM 17.6 °F 10.7 °F 5.0 °F 58% 30.03 in 10.0 mi SSE 4.6 mph - N/A   Clear
3:25 PM 17.6 °F 12.3 °F 5.0 °F 58% 30.03 in 10.0 mi SSE 3.5 mph - N/A   Clear
3:45 PM 17.6 °F 12.3 °F 6.8 °F 63% 29.98 in 10.0 mi SE 3.5 mph - N/A   Clear
4:05 PM 17.6 °F - 6.8 °F 63% 30.01 in 10.0 mi Calm Calm - N/A   Clear
4:25 PM 15.8 °F - 6.8 °F 68% 30.00 in 10.0 mi Calm Calm - N/A   Clear
4:45 PM 15.8 °F 10.2 °F 6.8 °F 68% 29.97 in 10.0 mi SSE 3.5 mph - N/A   Clear
5:05 PM 15.8 °F 10.2 °F 6.8 °F 68% 29.99 in 10.0 mi SSE 3.5 mph - N/A   Clear
5:24 PM 15.8 °F 10.2 °F 6.8 °F 68% 29.98 in 10.0 mi SE 3.5 mph - N/A   Clear
5:45 PM 14.0 °F 6.5 °F 6.8 °F 73% 29.97 in 10.0 mi SE 4.6 mph - N/A   Clear
6:05 PM 14.0 °F 6.5 °F 6.8 °F 73% 29.96 in 10.0 mi SSE 4.6 mph - N/A   Clear
6:25 PM 14.0 °F 5.1 °F 8.6 °F 79% 29.95 in 10.0 mi SSE 5.8 mph - N/A   Clear
6:45 PM 14.0 °F 3.9 °F 8.6 °F 79% 29.94 in 10.0 mi SSE 6.9 mph - N/A   Clear
7:05 PM 15.8 °F 5.1 °F 8.6 °F 73% 29.92 in 10.0 mi SSE 8.1 mph - N/A   Clear
7:25 PM 15.8 °F 5.1 °F 10.4 °F 79% 29.91 in 10.0 mi SSE 8.1 mph - N/A   Clear
7:45 PM 15.8 °F 4.2 °F 10.4 °F 79% 29.90 in 10.0 mi South 9.2 mph 16.1 mph N/A   Clear
8:05 PM 15.8 °F 4.2 °F 10.4 °F 79% 29.87 in 10.0 mi SSE 9.2 mph 16.1 mph N/A   Clear
8:25 PM 15.8 °F 5.1 °F 12.2 °F 86% 29.86 in 10.0 mi SSE 8.1 mph - N/A   Clear
8:45 PM 15.8 °F 2.7 °F 12.2 °F 86% 29.84 in 10.0 mi SE 11.5 mph 16.1 mph N/A   Clear
9:05 PM 15.8 °F 3.4 °F 12.2 °F 86% 29.81 in 10.0 mi SE 10.4 mph 16.1 mph N/A   Clear
9:25 PM 17.6 °F 4.3 °F 12.2 °F 79% 29.77 in 10.0 mi SSE 12.7 mph 19.6 mph N/A   Clear
9:45 PM 17.6 °F 4.3 °F 14.0 °F 86% 29.77 in 10.0 mi SSE 12.7 mph 21.9 mph N/A   Clear
10:05 PM 17.6 °F 5.7 °F 14.0 °F 86% 29.77 in 10.0 mi SSE 10.4 mph 18.4 mph N/A   Clear
10:25 PM 17.6 °F 7.3 °F 14.0 °F 86% 29.78 in 10.0 mi SSE 8.1 mph - N/A   Clear
10:45 PM 17.6 °F 6.4 °F 14.0 °F 86% 29.77 in 10.0 mi SSE 9.2 mph 17.3 mph N/A   Clear
11:25 PM 17.6 °F 7.3 °F 15.8 °F 93% 29.73 in 10.0 mi SSE 8.1 mph 18.4 mph N/A   Clear
11:45 PM 19.4 °F 7.2 °F 15.8 °F 86% 29.71 in 10.0 mi SSE 11.5 mph 17.3 mph N/A   Clear